Keokuk, IA

12:33 PM CST on January 17, 2017 (GMT -0600)
Keokuk Municipal

Weather History for KEOK - November, 2012

Change the Weather History Date:

Monday, November 19, 2012

  Actual Average Record
Temperature  
Mean Temperature 50 °F -  
Max Temperature 53 °F 50 °F 114 °F (1997)
Min Temperature 46 °F 33 °F 13 °F (1989)
Degree Days  
Heating Degree Days 16    
Moisture  
Dew Point 39 °F    
Average Humidity 69    
Maximum Humidity 87    
Minimum Humidity 47    
Precipitation  
Precipitation 0.04 in - - ()
Sea Level Pressure  
Sea Level Pressure 30.15 in    
Wind  
Wind Speed 6 mph (South)    
Max Wind Speed 14 mph    
Max Gust Speed 18 mph    
Visibility 10 miles    
Events Rain    
Averages and records for this station are not official NWS values.
T = Trace of Precipitation, MM = Missing Value Source: NWS Daily Summary

Daily Weather History Graph

Daily Weather History Graph

Search for Another Location

Airport or City:

Trip Planner

Search our weather history database for the weather conditions in past years. The results will help you decide how hot, cold, wet, or windy it might be!

Date:

Astronomy

Nov. 19, 2012 Rise Set
Actual Time 6:57 AM CST 4:44 PM CST
Civil Twilight 6:27 AM CST 5:14 PM CST
Nautical Twilight 5:54 AM CST 5:47 PM CST
Astronomical Twilight 5:21 AM CST 6:20 PM CST
Moon 11:59 AM CST (11/19) 11:12 PM CST (11/19)
Length of Visible Light 10h 46m
Length of Day
9h 47m
Waxing Crescent, 41% of the Moon is Illuminated
Nov 19
Waxing Crescent
Nov 20
First Quarter
Nov 28
Full
Dec 6
Last Quarter
Dec 13
New

Hourly Weather History & Observations

Time (CST) Temp. Windchill Dew Point Humidity Pressure Visibility Wind Dir Wind Speed Gust Speed Precip Events Conditions
12:15 AM 46.4 °F 44.3 °F 32.0 °F 57% 30.24 in 10.0 mi SE 4.6 mph - N/A   Clear
12:35 AM 48.2 °F - 32.0 °F 54% 30.23 in 10.0 mi SE 4.6 mph - N/A   Clear
12:55 AM 48.2 °F - 32.0 °F 54% 30.23 in 10.0 mi SE 4.6 mph - N/A   Clear
1:15 AM 48.2 °F - 32.0 °F 54% 30.22 in 10.0 mi SSE 5.8 mph - N/A   Clear
1:35 AM 48.2 °F - 32.0 °F 54% 30.22 in 10.0 mi SSE 4.6 mph - N/A   Clear
1:55 AM 48.2 °F - 32.0 °F 54% 30.22 in 10.0 mi SSE 4.6 mph - N/A   Clear
2:15 AM 48.2 °F - 32.0 °F 54% 30.22 in 10.0 mi SSE 3.5 mph - N/A   Clear
2:35 AM 46.4 °F 44.3 °F 32.0 °F 57% 30.22 in 10.0 mi SSE 4.6 mph - N/A   Clear
2:55 AM 48.2 °F - 32.0 °F 54% 30.22 in 10.0 mi SSE 3.5 mph - N/A   Clear
3:15 AM 48.2 °F - 30.2 °F 50% 30.21 in 10.0 mi South 3.5 mph - N/A   Clear
3:35 AM 50.0 °F - 30.2 °F 47% 30.21 in 10.0 mi South 3.5 mph - N/A   Clear
3:55 AM 50.0 °F - 30.2 °F 47% 30.21 in 10.0 mi South 6.9 mph - N/A   Clear
4:15 AM 50.0 °F - 30.2 °F 47% 30.21 in 10.0 mi South 5.8 mph - N/A   Scattered Clouds
4:35 AM 50.0 °F - 30.2 °F 47% 30.20 in 10.0 mi South 8.1 mph - N/A   Scattered Clouds
4:55 AM 50.0 °F - 30.2 °F 47% 30.20 in 10.0 mi South 8.1 mph - N/A   Scattered Clouds
5:15 AM 50.0 °F - 30.2 °F 47% 30.20 in 10.0 mi South 5.8 mph - N/A   Scattered Clouds
5:35 AM 50.0 °F - 30.2 °F 47% 30.19 in 10.0 mi South 4.6 mph - N/A   Clear
5:55 AM 48.2 °F - 32.0 °F 54% 30.19 in 10.0 mi Calm Calm - N/A   Scattered Clouds
6:15 AM 50.0 °F - 32.0 °F 50% 30.20 in 10.0 mi South 3.5 mph - N/A   Mostly Cloudy
6:35 AM 50.0 °F - 33.8 °F 54% 30.19 in 10.0 mi South 10.4 mph 16.1 mph N/A Rain Light Rain
6:55 AM 48.2 °F - 35.6 °F 62% 30.20 in 10.0 mi South 10.4 mph - N/A   Light Drizzle
7:35 AM 48.2 °F - 39.2 °F 71% 30.20 in 10.0 mi South 9.2 mph - N/A   Light Drizzle
7:55 AM 48.2 °F - 39.2 °F 71% 30.20 in 10.0 mi South 9.2 mph - N/A   Mostly Cloudy
8:15 AM 48.2 °F - 39.2 °F 71% 30.20 in 10.0 mi South 10.4 mph 17.3 mph N/A   Overcast
8:35 AM 48.2 °F - 39.2 °F 71% 30.20 in 10.0 mi SSW 8.1 mph - N/A   Overcast
8:55 AM 48.2 °F - 41.0 °F 76% 30.20 in 10.0 mi South 11.5 mph - N/A   Overcast
9:15 AM 48.2 °F - 41.0 °F 76% 30.20 in 10.0 mi South 10.4 mph - N/A   Overcast
9:35 AM 48.2 °F - 41.0 °F 76% 30.20 in 10.0 mi SSW 10.4 mph - N/A Rain Rain
9:55 AM 48.2 °F - 41.0 °F 76% 30.20 in 7.0 mi South 9.2 mph - N/A Rain Light Rain
10:15 AM 46.4 °F 41.5 °F 41.0 °F 81% 30.21 in 5.0 mi South 10.4 mph - N/A Rain Light Rain
10:35 AM 48.2 °F - 42.8 °F 82% 30.20 in 5.0 mi South 8.1 mph - 0.01 in Rain Rain
10:55 AM 48.2 °F - 42.8 °F 82% 30.19 in 5.0 mi South 10.4 mph - 0.03 in Rain Rain
11:15 AM 46.4 °F 41.9 °F 42.8 °F 87% 30.18 in 5.0 mi South 9.2 mph 17.3 mph 0.01 in Rain Rain
11:35 AM 48.2 °F - 42.8 °F 82% 30.17 in 7.0 mi South 9.2 mph - 0.01 in   Overcast
11:55 AM 48.2 °F - 42.8 °F 82% 30.16 in 7.0 mi South 10.4 mph - 0.01 in   Overcast
12:15 PM 50.0 °F - 42.8 °F 76% 30.15 in 10.0 mi South 6.9 mph - N/A   Overcast
12:35 PM 50.0 °F - 44.6 °F 82% 30.14 in 10.0 mi South 9.2 mph - N/A   Overcast
12:55 PM 51.8 °F - 44.6 °F 76% 30.13 in 10.0 mi South 6.9 mph - N/A   Overcast
1:15 PM 53.6 °F - 44.6 °F 72% 30.12 in 10.0 mi South 11.5 mph 17.3 mph N/A   Overcast
1:35 PM 53.6 °F - 44.6 °F 72% 30.11 in 10.0 mi South 12.7 mph 17.3 mph N/A   Scattered Clouds
1:55 PM 53.6 °F - 44.6 °F 72% 30.10 in 10.0 mi South 13.8 mph 18.4 mph N/A   Clear
2:15 PM 53.6 °F - 44.6 °F 72% 30.10 in 10.0 mi South 11.5 mph 17.3 mph N/A   Scattered Clouds
2:35 PM 53.6 °F - 44.6 °F 72% 30.10 in 10.0 mi South 9.2 mph 16.1 mph N/A   Mostly Cloudy
2:55 PM 53.6 °F - 44.6 °F 72% 30.10 in 10.0 mi SSW 8.1 mph - N/A   Overcast
3:15 PM 53.6 °F - 44.6 °F 72% 30.10 in 10.0 mi South 9.2 mph - N/A   Overcast
3:35 PM 53.6 °F - 44.6 °F 72% 30.10 in 10.0 mi SSW 9.2 mph - N/A   Overcast
3:55 PM 53.6 °F - 44.6 °F 72% 30.09 in 10.0 mi South 9.2 mph - N/A   Mostly Cloudy
4:15 PM 53.6 °F - 44.6 °F 72% 30.09 in 10.0 mi South 8.1 mph - N/A   Mostly Cloudy
4:35 PM 53.6 °F - 44.6 °F 72% 30.09 in 10.0 mi South 4.6 mph - N/A   Overcast
4:55 PM 53.6 °F - 44.6 °F 72% 30.10 in 10.0 mi South 5.8 mph - N/A   Overcast
5:15 PM 53.6 °F - 44.6 °F 72% 30.09 in 10.0 mi South 3.5 mph - N/A   Overcast
5:35 PM 51.8 °F - 44.6 °F 76% 30.09 in 10.0 mi South 5.8 mph - N/A   Mostly Cloudy
5:55 PM 51.8 °F - 44.6 °F 76% 30.10 in 10.0 mi South 4.6 mph - N/A   Mostly Cloudy
6:15 PM 51.8 °F - 44.6 °F 76% 30.11 in 10.0 mi South 4.6 mph - N/A   Overcast
6:35 PM 51.8 °F - 44.6 °F 76% 30.11 in 10.0 mi South 4.6 mph - N/A   Overcast
6:55 PM 51.8 °F - 44.6 °F 76% 30.11 in 10.0 mi SSE 3.5 mph - N/A   Overcast
7:15 PM 51.8 °F - 44.6 °F 76% 30.11 in 10.0 mi SE 3.5 mph - N/A   Overcast
7:35 PM 51.8 °F - 44.6 °F 76% 30.10 in 10.0 mi SE 3.5 mph - N/A   Overcast
7:55 PM 50.0 °F - 42.8 °F 76% 30.11 in 10.0 mi ESE 3.5 mph - N/A   Overcast
8:15 PM 48.2 °F - 42.8 °F 82% 30.11 in 10.0 mi SSE 4.6 mph - N/A   Mostly Cloudy
8:35 PM 48.2 °F - 41.0 °F 76% 30.11 in 10.0 mi SE 4.6 mph - N/A   Scattered Clouds
8:55 PM 46.4 °F 45.2 °F 41.0 °F 81% 30.10 in 10.0 mi SE 3.5 mph - N/A   Scattered Clouds
9:15 PM 46.4 °F 45.2 °F 41.0 °F 81% 30.10 in 10.0 mi SE 3.5 mph - N/A   Scattered Clouds
9:35 PM 46.4 °F 44.3 °F 41.0 °F 81% 30.10 in 10.0 mi SE 4.6 mph - N/A   Clear
9:55 PM 46.4 °F 45.2 °F 39.2 °F 76% 30.09 in 10.0 mi SE 3.5 mph - N/A   Clear
10:15 PM 46.4 °F 44.3 °F 39.2 °F 76% 30.08 in 10.0 mi SSE 4.6 mph - N/A   Clear
10:35 PM 48.2 °F - 41.0 °F 76% 30.08 in 10.0 mi South 4.6 mph - N/A   Clear
10:55 PM 48.2 °F - 41.0 °F 76% 30.08 in 10.0 mi South 3.5 mph - N/A   Clear
11:15 PM 46.4 °F 44.3 °F 41.0 °F 81% 30.07 in 10.0 mi South 4.6 mph - N/A   Clear
11:35 PM 46.4 °F 44.3 °F 41.0 °F 81% 30.07 in 10.0 mi SSW 4.6 mph - N/A   Clear
11:55 PM 48.2 °F - 42.8 °F 82% 30.07 in 10.0 mi SSW 5.8 mph - N/A   Clear